Flag for U.S.A. Weather past 2 weeks in Seattle, Washington, U.S.A.

Now
76 °F

Passing clouds.


Feels Like: 78 °F
Forecast: 57 / 76 °F
Wind: 3 mph from West

Location: Seattle Boeing Field

Current Time: May 27, 2015 at 8:01:11 PM

Latest Report: May 27, 2015 at 6:53 PM


Visibility: 10 mi

Pressure: 29.99 "Hg

Humidity: 45%

Dew point: 53 °F

Location of SeattleLocation

Historic Weather in Seattle — Graph

°F

Seattle temperature yesterday

Maximum temperature yesterday: 71 °F (at 4:53 PM)
Minimum temperature yesterday: 57 °F (at 1:53 AM)
Average temperature yesterday: 64 °F

Past Weeks' High & Low Weather Summary

 TemperatureHumidityPressure
High80 °F (May 21, 4:53 PM)86% (May 13, 11:53 PM)30.19 "Hg (May 13, 11:53 PM)
Low53 °F (May 13, 10:53 PM)35% (May 18, 5:53 PM)29.80 "Hg (May 21, 6:53 PM)
Average61 °F67%29.99 "Hg
* Reported May 12 6:53 PM — May 27 6:53 PM, Seattle, Weather by CustomWeather, © 2015

Note: Actual official high and low records may vary slightly from our data, if they occured in-between our weather recording intervals... More about our weather records

Advertising

Seattle weather history for previous 24 hours

 ConditionsComfort  
Time TempWeatherWind HumidityBarometerVisibility
6:53 PM
Wed, May 27
76 °FPassing clouds.3 mph45%29.99 "Hg10 mi
5:53 PM77 °FPassing clouds.7 mph45%30.00 "Hg10 mi
4:53 PM77 °FPassing clouds.5 mph44%30.00 "Hg10 mi
3:53 PM76 °FPassing clouds.6 mph42%30.01 "Hg10 mi
2:53 PM76 °FScattered clouds.6 mph42%30.02 "Hg10 mi
1:53 PM73 °FScattered clouds.3 mph46%30.04 "Hg10 mi
12:53 PM72 °FScattered clouds.No wind49%30.05 "Hg10 mi
11:53 AM69 °FPassing clouds.5 mph57%30.06 "Hg10 mi
10:53 AM65 °FPartly sunny.3 mph66%30.07 "Hg10 mi
9:53 AM63 °FOvercast.5 mph68%30.07 "Hg10 mi
8:53 AM62 °FOvercast.3 mph73%30.08 "Hg10 mi
7:53 AM60 °FPartly sunny.No wind75%30.07 "Hg10 mi
6:53 AM59 °FPartly sunny.No wind78%30.06 "Hg10 mi
5:53 AM58 °FPassing clouds.5 mph81%30.05 "Hg10 mi
4:53 AM57 °FPassing clouds.6 mph81%30.05 "Hg10 mi
3:53 AM59 °FPassing clouds.No wind78%30.05 "Hg10 mi
2:53 AM61 °FPassing clouds.No wind72%30.04 "Hg10 mi
1:53 AM60 °FClear.No wind75%30.04 "Hg10 mi
12:53 AM63 °FPassing clouds.No wind68%30.03 "Hg10 mi
11:53 PM
Tue, May 26
64 °FPassing clouds.No wind65%30.02 "Hg10 mi
10:53 PM66 °FClear.No wind61%30.02 "Hg10 mi
9:53 PM68 °FPassing clouds.No wind55%30.01 "Hg10 mi
8:53 PM69 °FPartly sunny.No wind51%30.00 "Hg10 mi
Weather by CustomWeather, © 2015

See weather overviewHow to use our weather pages